Home   Weather   Florø   Past weeks

Flag for Norway Past Weather in Florø, Norway — Yesterday and Last 2 Weeks

Now
48 °F

Rain showers. Broken clouds.


Feels Like: 45 °F
Forecast: 49 / 55 °F
Wind: 7 mph from East

Location: Floro

Current Time: Oct 1, 2016 at 10:53:23 AM

Latest Report: Oct 1, 2016 at 10:20 AM


Visibility: 6 mi

Pressure: 29.71 "Hg

Humidity: 87%

Dew Point: 45 °F

Location of FlorøLocation

Past Weather in Florø — Graph

°F

Florø Temperature Yesterday

Maximum temperature yesterday: 54 °F (at 1:20 PM)
Minimum temperature yesterday: 46 °F (at 4:50 AM)
Average temperature yesterday: 50 °F

High & Low Weather Summary for the Past Weeks

 TemperatureHumidityPressure
High77 °F (Sep 16, 3:20 PM)100% (Sep 17, 12:20 AM)30.18 "Hg (Sep 17, 12:20 AM)
Low45 °F (Oct 1, 7:50 AM)46% (Sep 25, 5:50 PM)28.80 "Hg (Sep 29, 3:50 PM)
Average57 °F79%29.86 "Hg
* Reported Sep 16 9:20 AM — Oct 1 9:20 AM, Florø, Weather by CustomWeather, © 2016

Note: Actual official high and low records may vary slightly from our data, if they occured in-between our weather recording intervals... More about our weather records

Advertising

Florø Weather History for the Previous 24 Hours

Scroll right to see more
 ConditionsComfort  
Time TempWeatherWind HumidityBarometerVisibility
9:20 AM
Sat, Oct 1
48 °FScattered showers. Scattered clouds.7 mph87%29.68 "HgN/A
8:50 AM46 °FBroken clouds.8 mph93%29.68 "HgN/A
8:20 AM46 °FMore clouds than sun.9 mph93%29.65 "HgN/A
7:50 AM45 °FScattered clouds.7 mph93%29.65 "HgN/A
7:20 AM46 °FPartly cloudy.7 mph93%29.65 "HgN/A
6:50 AM46 °FRain showers. Partly cloudy.7 mph93%29.65 "HgN/A
6:20 AM46 °FDrizzle. Mostly cloudy.9 mph93%29.62 "HgN/A
5:50 AM46 °FPassing clouds.7 mph93%29.62 "HgN/A
5:20 AM46 °FPartly cloudy.8 mph93%29.62 "HgN/A
4:50 AM46 °FMostly cloudy.7 mph93%29.59 "HgN/A
4:20 AM46 °FSprinkles. Partly cloudy.6 mph93%29.59 "HgN/A
3:50 AM46 °FLight rain. Partly cloudy.8 mph93%29.59 "Hg2 mi
3:20 AM46 °FRain showers. Mostly cloudy.6 mph93%29.59 "HgN/A
2:50 AM46 °FSprinkles. Partly cloudy.9 mph100%29.56 "HgN/A
2:20 AM46 °FLight rain. Mostly cloudy.8 mph93%29.56 "HgN/A
1:50 AM46 °FRain. Mostly cloudy.2 mph93%29.56 "HgN/A
1:20 AM46 °FRain. Low clouds.3 mph87%29.53 "HgN/A
12:50 AM46 °FRain. Overcast.13 mph87%29.53 "HgN/A
12:20 AM48 °FRain showers. Overcast.13 mph82%29.53 "HgN/A
11:50 PM
Fri, Sep 30
50 °FSprinkles. Overcast.17 mph82%29.50 "HgN/A
11:20 PM46 °FRain showers. Overcast.12 mph82%29.50 "HgN/A
10:50 PM48 °FSprinkles. Mostly cloudy.22 mph76%29.50 "HgN/A
10:20 PM50 °FSprinkles. Overcast.17 mph76%29.47 "HgN/A
9:50 PM50 °FSprinkles. Mostly cloudy.16 mph71%29.47 "HgN/A
9:20 PM50 °FSprinkles. Overcast.17 mph76%29.47 "HgN/A
8:50 PM50 °FPassing clouds.15 mph71%29.45 "HgN/A
8:20 PM52 °FPassing clouds.17 mph67%29.45 "HgN/A
7:50 PM50 °FPassing clouds.17 mph67%29.42 "HgN/A
7:20 PM50 °FPassing clouds.20 mph67%29.42 "HgN/A
6:50 PM50 °FScattered clouds.21 mph71%29.39 "HgN/A
6:20 PM52 °FScattered showers. Scattered clouds.21 mph67%29.36 "HgN/A
5:50 PM50 °FScattered showers. Broken clouds.26 mph76%29.36 "HgN/A
5:20 PM50 °FSprinkles. Broken clouds.26 mph82%29.33 "HgN/A
4:50 PM50 °FScattered showers. Broken clouds.25 mph76%29.30 "HgN/A
4:20 PM48 °FSprinkles. Broken clouds.26 mph82%29.27 "HgN/A
3:50 PM48 °FSprinkles. Broken clouds.28 mph82%29.27 "HgN/A
3:20 PM48 °FSprinkles. Broken clouds.25 mph87%29.24 "HgN/A
2:50 PM48 °FSprinkles. Broken clouds.35 mph82%29.21 "HgN/A
2:20 PM52 °FScattered showers. Broken clouds.37 mph82%29.21 "HgN/A
1:50 PM52 °FSprinkles. Broken clouds.39 mph77%29.21 "HgN/A
1:20 PM54 °FSprinkles. Broken clouds.37 mph72%29.18 "HgN/A
12:50 PM52 °FScattered showers. Scattered clouds.38 mph72%29.18 "HgN/A
12:20 PM50 °FScattered showers. Scattered clouds.30 mph82%29.21 "HgN/A
11:50 AM52 °FScattered showers. Scattered clouds.26 mph77%29.18 "HgN/A
11:20 AM52 °FScattered showers. Scattered clouds.28 mph72%29.18 "HgN/A
10:50 AM52 °FScattered showers. Partly sunny.23 mph77%29.18 "HgN/A
10:20 AM52 °FScattered showers. Broken clouds.25 mph77%29.18 "HgN/A
Weather by CustomWeather, © 2016

See weather overviewHow to use our weather pages